RH
57 55 58 56 56 61 66 66 74 77 89 76 78 76 82 77 74 67 68 70 71 71 72 78 81 82 93 94 87 62 60 60 71 77 76 72 92 87 88 86 85 89 86 72 68 67 70
56 55 54 56 58 57 61 69 68 71 79 85 76 79 82 83 77 75 72 72 71 71 75 76 80 78 89 96 57 52 48 59 70 83 92 88 91 87 90 88 85 78 77 74 68 71 68
56 55 55 56 55 57 62 66 69 68 70 86 85 81 82 84 80 76 76 74 74 72 74 72 77 76 94 80 58 60 50 61 60 70 86 87 84 90 86 91 80 79 87 76 72 67 70
54 54 54 54 53 53 59 62 64 66 68 72 84 86 82 83 84 81 78 76 77 81 79 74 77 88 94 60 67 62 56 56 54 63 57 69 74 85 88 76 70 81 86 96 71 68 66
53 54 54 52 52 54 52 52 61 65 66 70 74 85 86 81 85 84 84 79 79 76 76 75 83 85 89 55 74 63 58 56 54 55 56 41 57 71 77 88 90 87 95 92 75 65 67
57 53 53 52 52 53 52 51 60 65 64 66 70 77 84 88 82 87 86 81 80 80 80 72 74 93 77 71 66 60 66 54 59 61 61 66 75 88 85 92 95 90 93 84 73 68 72
54 53 54 54 53 52 52 52 58 65 63 64 70 78 85 89 83 87 86 89 90 96 90 86 83 77 64 64 59 67 62 62 65 71 89 78 96 90 75 81 78 93 95 93 80 62 71
53 56 54 59 58 56 52 51 60 64 66 64 68 74 86 86 87 89 82 86 82 71 94 84 84 80 68 64 73 71 59 74 80 92 87 85 92 78 74 80 83 85 89 87 78 62 67
64 59 60 61 60 57 54 53 53 66 69 71 69 74 79 88 92 93 80 84 79 74 89 78 83 83 78 68 74 77 66 78 89 96 88 89 74 67 75 84 89 92 93 89 84 64 57
65 60 61 61 59 55 56 55 62 68 71 74 71 72 77 89 99 90 90 82 82 68 93 73 96 86 81 71 81 62 62 73 86 90 86 94 75 74 82 84 84 92 79 78 80 88 95
61 58 59 62 58 59 58 64 69 70 73 80 72 73 77 87 97 94 84 84 83 69 91 76 94 66 75 72 68 83 63 66 92 90 85 84 88 87 84 77 74 74 71 80 82 93 95
67 66 66 65 60 60 61 65 69 71 75 75 78 76 78 90 97 84 79 78 82 87 87 91 87 91 90 79 71 78 69 61 63 74 79 79 75 76 79 69 65 67 79 78 82 81 94
68 66 67 67 63 61 60 59 59 71 78 84 76 78 85 81 97 87 77 83 95 92 76 94 83 86 78 85 79 78 82 91 93 99 98 94 89 74 75 84 75 74 90 98 98 98 90
65 67 66 67 66 64 62 57 57 72 76 80 81 81 88 79 92 84 82 89 90 68 84 76 71 76 84 78 73 82 88 94 84 92 99 97 95 89 77 77 85 81 79 92 90 92 88
68 68 67 66 65 61 57 56 58 74 83 89 85 94 97 89 93 83 80 88 78 70 80 88 77 83 86 79 81 87 88 82 68 91 98 97 95 87 81 68 67 97 97 71 76 64 90
62 67 66 64 66 61 56 58 61 69 85 88 98 97 96 89 90 90 83 83 71 70 79 79 89 80 87 85 91 97 85 76 73 75 70 85 96 80 83 75 70 88 76 98 97 96 95
67 68 65 63 65 62 58 57 64 68 79 86 98 98 93 86 94 97 98 85 72 78 73 78 82 84 65 69 81 84 76 70 75 75 74 89 96 90 93 94 82 92 96 97 80 88 93
68 67 64 63 64 61 56 57 65 70 81 89 98 98 97 89 100 99 94 72 68 94 88 78 76 67 72 82 95 89 86 75 70 77 86 79 97 96 84 74 64 65 73 77 87 88 86
68 66 61 64 62 62 55 59 65 73 78 98 97 98 97 87 100 99 85 78 79 96 94 87 85 73 69 78 87 89 81 61 71 80 86 80 98 98 95 89 86 93 77 66 67 79 84
67 66 62 62 64 63 56 60 67 78 80 97 98 100 99 98 93 78 80 82 83 77 84 77 77 77 81 83 80 85 83 64 68 71 69 71 98 98 86 94 96 98 90 79 74 95 76
66 65 60 61 63 62 57 61 71 81 83 98 97 98 91 99 97 74 72 77 81 85 81 76 84 79 91 97 82 89 76 69 68 66 77 92 99 100 93 79 99 98 96 88 94 79 78
65 64 62 63 63 59 56 64 71 85 87 97 99 96 90 87 76 76 83 87 85 76 81 83 86 76 86 92 78 74 79 75 82 73 82 93 98 100 99 96 97 99 95 96 95 75 67
65 63 63 62 64 57 59 67 73 82 89 97 96 94 80 82 81 84 84 86 78 75 70 77 80 86 89 80 73 71 64 73 74 78 96 98 100 100 95 95 96 99 90 80 78 80 63
65 64 61 63 63 58 59 65 70 78 86 98 96 99 96 93 78 77 74 73 86 80 82 86 78 84 71 70 69 76 84 82 81 80 80 97 100 100 98 100 98 81 78 70 73 71 65
64 64 61 61 63 60 61 61 66 73 77 97 98 99 98 92 74 74 81 83 75 84 87 84 76 78 75 78 92 93 88 92 89 87 89 81 98 99 99 99 83 83 84 79 81 78 62
64 61 61 62 63 63 60 64 65 72 75 92 96 98 99 93 85 64 78 85 95 95 93 88 88 89 86 93 94 94 93 83 91 90 91 93 82 97 93 98 81 64 89 83 76 92 69
58 62 62 61 62 64 62 65 64 71 75 90 97 98 99 95 87 74 79 86 86 88 90 93 92 94 89 96 96 97 96 82 95 95 93 94 96 96 89 86 84 70 70 78 90 70 68
65 59 63 63 64 64 63 64 63 68 76 89 95 97 100 97 88 75 75 90 91 88 89 93 93 98 99 99 99 97 98 92 93 84 91 91 91 92 92 96 81 73 69 81 65 71 73
66 66 66 65 64 65 63 64 62 64 73 82 96 88 92 99 92 91 81 80 73 70 85 93 91 93 92 98 96 93 95 95 92 92 89 93 79 84 83 77 67 75 72 72 69 71 82
Wind_Speed
23 23 23 23 24 23 25 24 23 25 26 18 19 15 17 16 13 12 10 8 6 6 3 5 6 1 3 3 6 2 7 8 2 11 9 8 3 4 4 3 1 5 3 4 4 7 7
25 24 23 25 25 25 25 26 24 25 26 20 19 18 15 17 15 12 10 8 7 6 3 2 4 3 2 5 2 3 3 4 5 5 6 6 5 5 3 4 3 2 3 5 5 6 7
23 24 25 27 23 25 27 27 27 26 25 25 21 19 15 18 16 14 12 9 9 8 5 2 2 2 1 11 2 1 6 1 0 3 5 4 5 1 1 3 1 3 4 6 6 5 6
23 24 25 25 26 23 23 26 27 28 27 26 22 22 17 18 17 14 13 11 9 5 7 5 2 2 7 3 0 3 3 2 0 1 2 6 5 4 4 4 4 3 2 2 4 8 7
22 24 25 26 26 26 25 25 27 26 28 27 21 23 18 15 18 15 12 11 5 3 2 3 3 3 8 3 2 3 4 5 3 2 1 1 2 3 2 3 3 5 5 4 6 2 4
22 24 25 26 28 28 28 28 25 28 26 27 23 22 21 17 19 17 13 8 7 7 4 3 1 2 2 3 3 3 3 6 3 4 3 3 2 3 3 4 7 5 6 5 5 2 3
24 22 24 25 26 28 27 28 25 26 26 25 24 23 18 22 15 21 15 8 4 1 5 8 5 4 1 1 2 3 4 5 4 4 5 2 4 11 14 10 7 1 3 9 5 7 7
23 23 25 24 26 28 29 27 26 25 27 25 21 23 17 24 14 24 11 8 7 4 4 13 6 7 3 3 3 2 6 6 4 5 4 2 13 9 4 5 6 8 11 13 9 9 9
25 25 25 25 26 27 30 29 23 27 28 24 22 21 21 18 16 19 16 7 8 7 1 5 7 7 4 5 3 7 9 5 4 6 8 10 3 4 11 5 6 5 11 6 12 11 14
24 27 26 26 26 27 28 27 26 27 27 22 23 23 21 14 10 17 8 11 7 6 5 5 4 6 6 5 6 9 9 6 3 11 8 10 8 7 4 6 6 14 7 12 11 4 5
25 27 25 26 27 27 27 27 27 26 25 27 27 25 23 12 3 13 12 11 7 7 3 3 4 3 7 13 3 1 4 4 8 7 6 5 3 5 13 13 7 5 6 8 8 7 5
26 28 27 26 26 27 27 26 24 25 27 31 31 27 19 4 6 9 21 13 6 8 8 5 4 6 10 6 1 4 5 1 2 5 7 6 3 4 5 4 13 0 4 6 4 6 12
26 26 26 26 26 27 27 25 26 27 30 34 27 21 10 5 4 19 16 8 7 5 1 6 6 7 8 7 5 6 11 10 6 4 7 5 16 4 4 4 5 8 5 3 6 8 8
26 27 26 25 26 25 27 25 25 26 33 32 26 13 6 7 5 23 12 5 6 7 6 3 6 7 6 5 5 6 10 8 13 3 1 6 7 14 12 14 7 10 11 5 6 3 4
28 27 26 25 25 25 26 26 27 26 30 30 10 3 5 1 17 16 13 5 9 6 7 8 10 6 7 5 2 6 9 8 9 14 7 3 6 2 3 7 11 5 9 13 6 6 4
27 27 27 25 24 25 26 27 28 29 30 20 1 2 3 7 14 13 7 6 5 5 7 3 6 6 7 7 7 7 7 4 12 15 12 2 7 5 3 6 10 7 0 4 7 6 6
29 27 26 25 24 25 26 27 28 30 29 26 1 3 5 12 5 5 6 4 4 4 7 6 4 4 4 5 6 5 4 4 6 4 15 6 6 0 3 10 12 9 7 5 2 4 5
28 26 26 26 24 24 25 26 27 29 25 8 4 1 8 17 7 3 4 6 4 5 1 3 3 4 6 8 7 6 8 7 6 10 10 9 4 6 15 5 12 13 11 13 6 6 4
27 27 25 26 23 24 24 26 27 28 23 4 2 1 6 13 4 5 4 3 3 4 4 5 4 5 4 6 4 8 5 7 10 11 12 10 6 3 4 2 3 9 13 15 13 4 8
27 26 25 25 24 23 23 25 27 29 28 10 3 3 7 5 4 9 8 4 3 2 4 4 4 5 5 6 5 2 4 4 13 9 10 12 5 9 9 4 2 7 12 16 16 9 14
26 26 25 25 23 22 24 25 29 30 30 5 2 3 3 6 5 11 4 6 4 1 1 6 4 8 6 4 7 8 8 5 8 11 9 8 8 12 21 22 11 7 13 17 22 20 13
24 26 25 25 23 23 24 24 27 28 27 3 3 3 1 8 9 11 6 7 11 8 4 4 6 7 8 7 7 2 3 6 6 9 10 5 7 5 10 15 20 15 18 17 21 24 25
24 24 25 24 23 23 24 22 24 27 16 3 3 4 2 12 10 9 9 5 7 7 6 6 10 8 9 13 13 15 9 7 4 5 8 3 3 3 7 9 8 11 22 21 15 20 19
23 23 24 22 21 22 23 23 24 25 17 1 3 3 1 6 10 9 11 10 4 5 5 0 6 7 2 2 3 2 6 11 11 13 11 7 3 2 7 4 4 2 5 23 24 11 21
24 21 22 21 22 21 22 23 24 24 21 3 3 3 2 4 9 10 7 6 8 1 2 5 8 6 2 3 3 3 2 4 6 10 14 10 4 3 4 3 6 4 2 5 12 13 15
23 22 20 19 20 20 21 23 24 25 23 8 3 2 3 3 9 6 8 5 3 3 1 4 1 1 3 3 2 3 2 1 5 4 2 5 4 1 4 4 4 3 2 6 7 6 18
22 22 20 20 20 20 20 21 23 23 24 10 3 2 4 3 1 6 6 5 4 3 1 2 2 1 4 3 4 3 3 2 3 3 3 2 3 4 5 4 6 2 2 5 2 5 5
21 21 19 19 18 20 21 21 22 22 22 11 6 4 3 2 0 1 6 6 3 3 4 3 0 3 3 4 4 3 4 4 2 4 5 6 4 4 0 2 4 3 4 4 4 4 3
21 19 20 18 18 19 18 19 21 21 22 16 4 5 5 1 2 1 1 1 3 6 4 4 1 1 3 3 2 2 3 2 3 4 1 3 6 3 7 6 3 3 4 4 3 3 0
Wind_Direction
358 356 349 350 348 346 345 336 340 341 327 282 276 272 234 223 219 234 245 249 256 272 261 312 319 25 139 241 254 340 7 7 44 142 184 200 160 172 204 223 312 206 228 268 262 277 273
353 350 347 349 349 347 341 343 339 339 336 304 282 274 240 223 213 217 224 226 238 257 248 297 331 78 83 233 260 44 29 20 78 117 160 156 192 214 242 239 192 296 280 258 268 263 250
355 353 348 343 347 340 338 337 336 337 334 328 311 278 260 223 208 199 213 208 223 226 220 227 299 79 261 246 60 4 19 70 208 148 148 184 167 56 69 257 322 265 298 292 229 220 247
352 349 347 346 337 338 337 334 332 329 332 325 335 312 275 233 199 198 198 203 226 223 222 203 76 77 246 251 309 275 153 307 354 173 118 149 153 186 172 289 340 299 208 299 308 205 228
345 345 344 343 336 336 332 330 326 324 321 328 326 323 307 267 199 190 183 199 175 148 115 129 83 125 258 297 159 203 153 156 122 80 34 162 149 212 190 149 318 203 242 216 323 232 244
344 342 339 338 336 337 332 328 326 319 317 318 322 321 320 289 213 177 169 167 143 98 77 56 79 318 234 237 180 122 162 135 122 121 99 161 193 205 159 164 223 204 234 218 230 291 345
338 338 332 332 334 330 326 322 324 315 315 312 320 326 312 315 232 164 134 115 79 145 217 197 197 244 132 209 108 91 133 97 86 86 174 176 204 215 221 223 254 14 272 270 283 284 306
329 332 330 333 331 327 323 320 318 324 313 307 313 324 304 314 253 160 148 158 173 164 221 237 233 262 276 8 116 117 132 133 139 177 128 209 246 237 237 205 227 235 257 266 277 264 266
333 330 327 329 327 323 320 315 322 317 317 308 304 322 310 286 252 149 168 160 140 133 118 270 215 216 195 147 242 187 156 128 143 160 194 216 185 232 200 200 213 217 236 251 257 288 285
329 323 330 327 322 323 324 320 323 318 320 309 313 314 307 298 235 145 172 151 144 109 57 250 203 247 164 140 266 185 171 140 156 202 203 246 234 234 204 236 190 255 194 236 250 247 246
327 325 333 324 322 323 325 320 322 322 322 324 312 307 301 244 244 164 148 133 119 59 25 155 160 154 153 163 155 40 157 130 160 183 163 231 174 219 233 225 186 246 188 210 231 234 268
328 327 327 324 320 322 325 320 324 328 328 317 304 296 285 288 233 147 127 135 81 59 253 168 130 170 157 204 168 111 159 213 83 205 234 221 192 180 213 246 211 12 231 253 251 250 249
330 328 326 325 323 326 326 329 332 329 316 305 299 284 238 188 315 135 141 130 88 158 46 169 174 171 181 163 207 150 185 190 192 195 220 222 231 176 199 195 185 188 216 238 219 209 242
334 330 329 326 324 328 322 332 322 331 318 319 303 267 204 210 222 146 154 101 126 185 180 117 148 148 184 152 204 188 177 207 216 188 329 217 301 182 187 206 183 191 188 197 223 229 274
333 331 330 329 329 328 331 329 327 328 327 315 263 197 156 320 182 143 164 185 186 180 152 136 136 168 195 205 204 174 224 232 208 181 209 217 264 308 206 183 191 171 205 223 286 275 291
334 333 329 333 332 330 332 330 331 336 339 353 348 88 142 169 163 161 159 192 158 141 120 150 155 170 175 186 181 180 194 223 218 182 196 231 273 215 216 174 246 194 288 188 187 198 233
336 333 331 336 334 332 332 333 335 334 345 332 285 150 172 157 123 159 168 179 162 148 123 148 166 151 199 168 184 204 232 266 204 196 175 153 212 176 183 205 184 187 221 236 248 193 205
336 335 333 336 334 332 333 334 336 338 347 11 314 138 144 147 164 185 156 160 146 127 71 120 136 129 172 175 182 216 223 232 161 142 180 201 224 224 224 225 211 202 207 202 203 233 239
336 334 334 338 334 336 336 337 337 333 335 314 244 171 130 148 159 153 137 104 103 118 180 149 165 169 173 170 210 200 204 242 165 170 174 162 220 265 281 190 187 216 222 216 227 281 218
339 332 336 338 335 337 339 338 336 333 339 328 138 132 127 216 275 159 135 143 124 162 138 158 166 118 158 211 219 265 241 265 183 183 183 173 211 214 235 233 183 201 206 214 205 228 235
340 334 336 341 342 342 346 341 338 341 339 314 204 105 110 164 195 166 127 139 175 108 191 167 184 210 174 221 220 226 227 265 165 198 188 199 239 224 239 244 221 205 209 210 213 222 219
341 335 336 341 343 346 347 343 342 346 338 349 4 98 116 149 145 157 196 163 173 192 200 197 229 200 225 233 219 181 223 191 191 199 195 210 266 254 257 236 226 225 217 216 217 226 236
341 337 336 345 343 347 347 346 347 347 358 15 321 256 158 166 152 161 190 180 198 147 212 260 209 228 254 246 234 254 242 250 256 238 210 251 264 279 279 322 233 237 232 224 222 216 218
340 338 337 344 341 347 346 347 345 347 5 339 276 265 217 166 186 181 152 204 179 202 206 200 215 209 201 54 294 256 238 254 252 247 187 197 199 239 281 275 270 301 273 212 210 225 217
340 341 338 343 340 346 344 343 345 347 355 306 259 275 283 135 183 176 155 179 220 291 212 258 255 228 96 29 268 254 218 278 245 229 208 208 141 281 274 292 279 356 5 122 174 236 210
335 338 340 339 342 342 342 342 343 346 353 346 308 242 283 135 210 142 174 154 144 164 232 231 344 24 114 233 233 248 228 151 306 332 357 200 247 313 313 318 347 306 308 82 80 256 200
337 333 338 340 341 340 340 341 342 348 350 352 282 284 283 91 4 138 178 191 128 132 231 297 214 243 176 219 228 205 245 150 264 243 186 188 186 218 267 285 291 305 168 106 51 278 1
332 332 336 333 338 338 339 340 342 346 344 352 282 276 295 31 111 142 143 153 121 174 172 154 348 189 194 220 199 164 211 231 256 225 193 183 170 212 293 262 330 81 66 189 239 301 341
340 332 329 334 332 334 335 336 341 340 340 355 309 320 320 184 221 318 283 182 191 185 148 175 219 153 235 234 205 177 202 169 206 272 138 242 192 198 181 220 250 230 249 305 298 282 153